Regional Weather Roundup
Issued by NWS

Home | Current Version | Previous Version | Graphics & Text | Print | Product List | Glossary On
Versions: 1 2 3 4 5 6 7 8 9 10 11 12 13 14 15 16 17 18 19 20 21 22 23 24 25 26 27 28 29 30 31 32 33 34 35 36 37 38 39 40 41 42 43 44 45 46 47 48 49 50
000
ASUS43 KLMK 031502
RWRKY
KENTUCKY REGIONAL WEATHER ROUNDUP
NATIONAL WEATHER SERVICE LOUISVILLE KY
1100 AM EDT TUE MAY 03 2016

NOTE "FAIR" INDICATES FEW OR NO CLOUDS BELOW 12,000 FEET
WITH NO SIGNIFICANT WEATHER AND/OR OBSTRUCTIONS TO VISIBILITY.

KYZ001>023-026-027-061>063-070>075-031600-
WESTERN AND SOUTH CENTRAL KENTUCKY

CITY           SKY/WX    TMP DP  RH WIND       PRES   REMARKS
PADUCAH        CLOUDY    60  49  66 NW6       30.02S
HENDERSON      MOSUNNY   59  43  55 NW14      29.99S
OWENSBORO      SUNNY     61  46  57 NW13      29.99S
HOPKINSVILLE   NOT AVBL
BOWLING GREEN  PTSUNNY   61  50  67 NW9       29.98S
GLASGOW        NOT AVBL
$$

KYZ024-025-028>034-038-045-046-053-031600-
NORTH CENTRAL KENTUCKY

CITY           SKY/WX    TMP DP  RH WIND       PRES   REMARKS
LOUISVILLE/SDF PTSUNNY   61  47  59 CALM      29.95S
LOUISVILLE/LOU PTSUNNY   59  48  67 N5        29.95S
FORT KNOX      NOT AVBL
$$

KYZ035>037-039>044-047>052-055>060-089>105-031600-
NORTHEAST KENTUCKY

CITY           SKY/WX    TMP DP  RH WIND       PRES   REMARKS
LEXINGTON      CLOUDY    57  49  74 W9        29.93S
COVINGTON      CLOUDY    56  51  84 NW5       29.91S
FRANKFORT      PTSUNNY   60  48  64 W9        29.92S
$$

KYZ054-064>069-076>088-106>120-031600-
SOUTHEAST KENTUCKY

CITY           SKY/WX    TMP DP  RH WIND       PRES   REMARKS
JACKSON        CLOUDY    58  53  84 VRB3      29.91S
LONDON         CLOUDY    59  51  75 W9        29.93S
SOMERSET       NOT AVBL
MIDDLESBORO    NOT AVBL
MONTICELLO     PTSUNNY   61  51  70 NW12      29.97R
$$




USA.gov is the U.S. government's official web portal to all federal, state and local government web resources and services.